CZ-6A DEB, 60827

Orbit data source: Space-Track

CZ-6A DEB, 60827 is space debris in LEO originally from a launch on Tue, 06 Aug 2024 UTC launched from the Taiyaun Space Center, China (TSC). Debris objects in space refer to the collection of defunct objects orbiting the Earth. Examples of debris include non-operational satellites, rocket bodies, and fragments generated from explosions, collisions, or faulty payload assembly.

Loading next visibility...
Identifier
60827, 2024-140HE
Orbit
LEO
Country
Flag of CNCN / PRC
Related business
Manufacturer
SAST
Mission
Spacecraft
Bus & Motor
Unknown
Mass
Unknown
Launch date (UTC)
2024-08-06 (1 year ago)
Launch vehicle
Unknown
Launch site
Taiyaun Space Center, China (TSC)
Object type
Payload
Rocket body
Debris
Shape & HBR
Unknown shape, 0.1 m
Radar Cross Section
Small (<0.1 m²)

Expand to show TLE details & history
Last TLE update: 1 day ago

TLE from 1 day ago
0 CZ-6A DEB
1 60827U 24140HE  25312.70896220  .00002980  00000-0  10907-2 0  9999
2 60827  89.0774 302.9842 0036959 249.5935 110.1291 14.32337547 62717
Epoch: 2025-11-08T17:00Z
TLE epoch observation values (Epoch: 2025-11-08T17:00:54.334Z)
Latitude
-0.00001°
Longitude
-0.37688°
Altitude
796.196 km
Speed
7.451 km/s
True Right ascension
20h 11m 56s
True Declination
0° 00' 00"
Sunlit
Object was in daylight at epoch
Visualization orbit readout
Latitude
Unknown
Longitude
Unknown
Altitude
Unknown
Speed
Unknown
Apparent Right ascension
Unknown
Apparent Declination
Unknown
Sunlit
N/A
Visualization observer readout
Local Sidereal Time
17:29:42
Azimuth
Unknown
Elevation
Unknown
Doppler factor
Unknown
Orbital elements
Apogee altitude
807.32 km
Perigee altitude
754.402 km
Semi-major axis
7,158.998 km
Eccentricity
0.0037
Inclination
89.0774°
RAAN
302.9842°
Arg. of periapsis
249.5935°
True anomaly
110.52612°
Mean anomaly
110.1291°
Eccentric anomaly
110.32767°
Mean motion
3.58315 °/min
Orbital period
100.47 mins
BSTAR
0.0010907
Loading maneuver chart data...
Computing Atmospheric mass density...
Loading historical data...
Loading historical data...
Loading historical data...
Loading historical data...
Loading historical data...
Loading historical data...
Loading historical data...

Documentation

Showing up to 5 results
|